sat.trackr.live / text

‹ back to catalog

INMARSAT 5-F3

NORAD 40882 · 2015-042A

PAYLOAD ACTIVE UNKNOWN

§ Identity

Operator
Country
IM
Launch date
2015-08-28
Launch site
TYMSC
Launch vehicle
Mass (kg)
RCS (m²)
49.81

Purposes: comms

External: N2YO · Heavens-Above · Gunter

§ Orbital elements

Epoch: 2026-09-03T20:20:14.979840Z

Period
1,436.12 min
Inclination
0.0187°
Eccentricity
0.0000528
Mean motion
1.00270009 rev/d
Perigee alt
35,784.9 km
Apogee alt
35,789.3 km
Semi-major
42,165.2 km
B*
0.0000e+0
RAAN
135.3589°
Arg perigee
220.8825°
Mean anomaly
111.3391°
Rev number
4,036

§ Raw data

INMARSAT 5-F31 40882U 15042A   26246.84739560  .00000046  00000+0  00000+0 0  99942 40882   0.0187 135.3589 0000528 220.8825 111.3391  1.00270009 40367

JSON: /api/v1/satellites/40882 · /tle

For live sub-satellite position, see the globe view (requires WebGL).

§ Visibility from observer

Set your observer location to see the next 7 days of passes ≥ 10°. The values pass through the URL so the page stays shareable.

No JS? Fill the form by hand. The geolocation button needs JavaScript.